Regional Weather Roundup
Issued by NWS Goodland, KS

Home | Current Version | Previous Version | Graphics & Text | Print | Product List | Glossary On
Versions: 1 2 3 4 5 6 7 8 9 10 11 12 13 14 15 16 17 18 19 20 21 22 23 24 25 26 27 28 29 30 31 32 33 34 35 36 37 38 39 40 41 42 43 44 45 46 47 48 49 50
000
ASUS43 KGLD 280408
RWRGLD

GOODLAND FORECAST AREA HOURLY WEATHER ROUNDUP
NATIONAL WEATHER SERVICE GOODLAND KS
1000 PM MDT MON APR 27 2015

...OFFICIAL OBSERVATIONS...

CITY           SKY/WX    TMP DP  RH WIND       PRES   REMARKS
GOODLAND KS    CLEAR     41  34  76 NW5       30.25R
HILL CITY KS   PTCLDY    45  36  70 N8        30.19S
IMPERIAL NEB   PTCLDY    45  33  63 NW3       30.24R
MCCOOK NEB     CLEAR     49  35  58 NE5       30.22R
AKRON CO       PTCLDY    42  36  79 NW7       30.30R
BURLINGTON CO  CLEAR     43  33  68 N6        30.26R
LIMON CO       CLOUDY    43  39  86 NW10      30.32R
$$

...UNOFFICIAL OBSERVATIONS...

CITY           SKY/WX    TMP DP  RH WIND       PRES   REMARKS
COLBY KS       CLEAR     46  36  66 N5        30.24R
GOVE KS          N/A     42  32  68 MISG        N/A
LENORA KS        N/A     50  32  50 MISG        N/A
NORTON KS      CLEAR     48  34  57 CALM      30.20R
SHARON SPRINGS   N/A     44  35  72 CALM        N/A
TRIBUNE KS     PTCLDY    45  39  81 N8        30.25R
KIT CARSON CO    N/A     41  35  79 MISG        N/A
YUMA CO          N/A     41  36  83 CALM        N/A
$$



USA.gov is the U.S. government's official web portal to all federal, state and local government web resources and services.